This is the latest recevied weather packets stored in our database for station/object WA3NOA-2. If no packets are shown the sender has not sent any weather packets the latest 10 day(s).
| Time | Temp. | Humidity | Pressure | Rain* | Wind** | Luminosity | Snow |
|---|---|---|---|---|---|---|---|
| 1777758126 | 13.33° C | 43% | 1004.8 hPa | 0 mm | - | - | - |
| 1777757826 | 13.33° C | 46% | 1004.8 hPa | 0 mm | - | - | - |
| 1777757587 | 13.89° C | 43% | 1004.8 hPa | 0 mm | - | - | - |
| 1777757526 | 13.89° C | 44% | 1004.7 hPa | 0 mm | - | - | - |
| 1777756926 | 13.89° C | 44% | 1004.8 hPa | 0 mm | - | - | - |
| 1777756687 | 13.89° C | 46% | 1004.6 hPa | 0 mm | - | - | - |
| 1777756626 | 13.89° C | 44% | 1004.6 hPa | 0 mm | - | - | - |
| 1777756326 | 13.89° C | 43% | 1004.6 hPa | 0 mm | - | - | - |
| 1777756026 | 13.89° C | 43% | 1004.5 hPa | 0 mm | - | - | - |
| 1777755788 | 13.89° C | 40% | 1004.5 hPa | 0 mm | - | - | - |
| 1777755726 | 13.89° C | 41% | 1004.5 hPa | 0 mm | - | - | - |
| 1777755426 | 14.44° C | 42% | 1004.4 hPa | 0 mm | - | - | - |
| 1777755126 | 14.44° C | 42% | 1004.4 hPa | 0 mm | - | - | - |
| 1777754888 | 14.44° C | 41% | 1004.3 hPa | 0 mm | - | - | - |
| 1777754826 | 14.44° C | 41% | 1004.4 hPa | 0 mm | - | - | - |
| 1777754526 | 14.44° C | 41% | 1004.3 hPa | 0 mm | - | - | - |
| 1777754226 | 14.44° C | 43% | 1004.3 hPa | 0 mm | - | - | - |
| 1777753987 | 14.44° C | 42% | 1004.3 hPa | 0 mm | - | - | - |
| 1777753926 | 14.44° C | 41% | 1004.3 hPa | 0 mm | - | - | - |
| 1777753626 | 15° C | 41% | 1004.3 hPa | 0 mm | - | - | - |
| 1777753326 | 14.44° C | 43% | 1004.4 hPa | 0 mm | - | - | - |
| 1777753088 | 13.89° C | 45% | 1004.5 hPa | 0 mm | - | - | - |
| 1777753026 | 13.89° C | 44% | 1004.6 hPa | 0 mm | - | - | - |
| 1777752726 | 13.89° C | 49% | 1004.5 hPa | 0 mm | - | - | - |
| 1777752426 | 13.33° C | 44% | 1004.6 hPa | 0 mm | - | - | - |
* Rain latest hour (hover to see other rain measurements)
** Current wind speed in m/s (hover to see current wind gust speed)